TimeCST,TemperatureF,Dew PointF,Humidity,Sea Level PressureIn,VisibilityMPH,Wind Direction,Wind SpeedMPH,Gust SpeedMPH,PrecipitationIn,Events,Conditions,WindDirDegrees,DateUTC
12:53 AM,30.0,17.1,59,30.27,10.0,NNE,19.6,-,N/A,,Clear,20,2013-01-14 06:53:00
1:53 AM,28.9,17.1,61,30.25,10.0,North,16.1,25.3,N/A,,Clear,10,2013-01-14 07:53:00
2:53 AM,28.9,16.0,58,30.28,10.0,NNE,11.5,-,N/A,,Clear,20,2013-01-14 08:53:00
3:53 AM,30.0,16.0,56,30.28,10.0,NNE,18.4,-,N/A,,Mostly Cloudy,20,2013-01-14 09:53:00
4:53 AM,28.9,17.1,61,30.31,10.0,NNE,12.7,-,N/A,,Overcast,30,2013-01-14 10:53:00
5:53 AM,28.9,17.1,61,30.31,10.0,NNE,12.7,-,N/A,,Overcast,20,2013-01-14 11:53:00
6:53 AM,28.9,17.1,61,30.32,10.0,NNE,12.7,-,N/A,,Overcast,20,2013-01-14 12:53:00
7:53 AM,30.0,17.1,59,30.35,10.0,North,13.8,-,N/A,,Overcast,10,2013-01-14 13:53:00
8:53 AM,30.9,17.1,57,30.34,10.0,NNE,16.1,-,N/A,,Mostly Cloudy,30,2013-01-14 14:53:00
9:53 AM,34.0,18.0,52,30.34,10.0,North,15.0,-,N/A,,Mostly Cloudy,10,2013-01-14 15:53:00
10:53 AM,36.0,18.0,48,30.32,10.0,NNE,15.0,-,N/A,,Mostly Cloudy,30,2013-01-14 16:53:00
11:53 AM,39.0,18.0,43,30.29,10.0,NNE,11.5,-,N/A,,Scattered Clouds,20,2013-01-14 17:53:00
12:53 PM,42.1,18.0,38,30.25,10.0,NNE,11.5,-,N/A,,Scattered Clouds,30,2013-01-14 18:53:00
1:53 PM,44.6,19.4,37,30.23,10.0,NNE,11.5,-,N/A,,Scattered Clouds,30,2013-01-14 19:53:00
2:53 PM,45.0,21.9,40,30.22,10.0,ENE,10.4,-,N/A,,Mostly Cloudy,70,2013-01-14 20:53:00
3:53 PM,45.0,21.0,39,30.22,10.0,NE,9.2,-,N/A,,Mostly Cloudy,50,2013-01-14 21:53:00
4:53 PM,44.1,21.9,42,30.22,10.0,ENE,10.4,-,N/A,,Mostly Cloudy,70,2013-01-14 22:53:00
5:53 PM,41.0,24.1,51,30.24,10.0,ENE,9.2,-,N/A,,Mostly Cloudy,70,2013-01-14 23:53:00
6:53 PM,37.0,24.1,59,30.24,10.0,NE,6.9,-,N/A,,Scattered Clouds,50,2013-01-15 00:53:00
7:53 PM,36.0,24.1,62,30.24,10.0,NNE,8.1,-,N/A,,Partly Cloudy,20,2013-01-15 01:53:00
8:53 PM,37.0,23.0,57,30.24,10.0,North,10.4,-,N/A,,Clear,10,2013-01-15 02:53:00
9:53 PM,37.0,21.9,54,30.23,10.0,NNE,12.7,-,N/A,,Partly Cloudy,20,2013-01-15 03:53:00
10:53 PM,34.0,21.0,59,30.22,10.0,NNE,12.7,-,N/A,,Partly Cloudy,20,2013-01-15 04:53:00
11:53 PM,33.1,19.9,59,30.22,10.0,North,9.2,-,N/A,,Scattered Clouds,10,2013-01-15 05:53:00